TimeCST,TemperatureF,Dew PointF,Humidity,Sea Level PressureIn,VisibilityMPH,Wind Direction,Wind SpeedMPH,Gust SpeedMPH,PrecipitationIn,Events,Conditions,WindDirDegrees,DateUTC
12:53 AM,-0.0,-6.0,76,30.05,10.0,Calm,Calm,-,N/A,,Mostly Cloudy,0,2013-02-04 06:53:00
1:53 AM,-6.0,-11.0,79,30.06,10.0,Calm,Calm,-,N/A,,Clear,0,2013-02-04 07:53:00
2:53 AM,-9.9,-16.1,74,30.07,10.0,Calm,Calm,-,N/A,,Clear,0,2013-02-04 08:53:00
4:53 AM,-16.1,-23.1,71,30.09,10.0,Calm,Calm,-,N/A,,Clear,0,2013-02-04 10:53:00
5:53 AM,-18.0,-25.1,70,30.10,10.0,Calm,Calm,-,N/A,,Clear,0,2013-02-04 11:53:00
6:53 AM,-18.9,-26.0,70,30.11,10.0,Calm,Calm,-,N/A,,Clear,0,2013-02-04 12:53:00
7:53 AM,-18.9,-25.1,74,30.11,9.0,Calm,Calm,-,N/A,,Clear,0,2013-02-04 13:53:00
8:53 AM,-13.0,-18.0,78,30.11,10.0,Calm,Calm,-,N/A,,Clear,0,2013-02-04 14:53:00
9:53 AM,-4.0,-8.0,83,30.10,10.0,Calm,Calm,-,N/A,,Clear,0,2013-02-04 15:53:00
10:53 AM,3.9,-5.1,66,30.10,10.0,Variable,4.6,-,N/A,,Clear,0,2013-02-04 16:53:00
11:53 AM,8.1,-9.0,46,30.07,10.0,Variable,3.5,-,N/A,,Clear,0,2013-02-04 17:53:00
12:53 PM,10.0,-11.0,38,30.04,10.0,WSW,3.5,-,N/A,,Clear,240,2013-02-04 18:53:00
1:53 PM,12.0,-9.9,37,30.02,10.0,Variable,5.8,-,N/A,,Clear,0,2013-02-04 19:53:00
2:53 PM,12.9,-11.0,34,30.01,10.0,Variable,4.6,-,N/A,,Clear,0,2013-02-04 20:53:00
3:53 PM,12.0,-9.0,39,30.01,10.0,West,4.6,-,N/A,,Overcast,260,2013-02-04 21:53:00
4:53 PM,10.9,-9.0,40,29.99,10.0,SW,4.6,-,N/A,,Clear,220,2013-02-04 22:53:00
5:53 PM,9.0,-8.0,46,30.00,10.0,Calm,Calm,-,N/A,,Clear,0,2013-02-04 23:53:00
6:53 PM,8.1,-8.0,48,29.97,10.0,Calm,Calm,-,N/A,,Clear,0,2013-02-05 00:53:00
7:53 PM,8.1,-7.1,50,29.95,10.0,Calm,Calm,-,N/A,,Clear,0,2013-02-05 01:53:00
8:53 PM,3.9,-6.0,64,29.94,10.0,Calm,Calm,-,N/A,,Mostly Cloudy,0,2013-02-05 02:53:00
9:53 PM,8.1,-5.1,55,29.88,10.0,South,4.6,-,N/A,,Overcast,180,2013-02-05 03:53:00
10:53 PM,9.0,-4.0,56,29.87,10.0,South,4.6,-,N/A,,Overcast,190,2013-02-05 04:53:00
11:33 PM,10.4,-0.4,62,29.77,2.0,Variable,6.9,-,0.00,Snow,Light Snow,0,2013-02-05 05:33:00
11:41 PM,8.6,1.4,73,29.76,1.2,Variable,4.6,-,0.00,Snow,Light Snow,0,2013-02-05 05:41:00
11:51 PM,8.6,3.2,79,29.75,1.0,South,9.2,-,0.00,Snow,Light Snow,170,2013-02-05 05:51:00